QPF
0.21 0.19 0.27 0.20 0.14 0.08 0.05 0.06 0.07 0.04 0.03 0.04 0.06 0.08 0.08 0.07 0.06 0.05 0.04 0.04 0.05 0.05 0.05 0.04 0.04 0.04 0.04 0.04 0.06 0.07 0.06 0.05 0.03 0.02 0.01 0.01 0.01 0.01 0.01 0.02 0.04 0.02 0.01
0.16 0.15 0.14 0.12 0.10 0.06 0.05 0.05 0.06 0.04 0.05 0.07 0.08 0.07 0.07 0.07 0.07 0.07 0.06 0.05 0.05 0.04 0.05 0.06 0.05 0.05 0.03 0.02 0.04 0.05 0.06 0.06 0.04 0.02 0.02 0.01 0.01 0.02 0.02 0.03 0.06 0.05 0.02
0.12 0.10 0.07 0.05 0.05 0.06 0.08 0.07 0.08 0.06 0.07 0.08 0.09 0.09 0.08 0.08 0.08 0.08 0.07 0.07 0.06 0.04 0.06 0.07 0.06 0.05 0.04 0.04 0.04 0.05 0.04 0.04 0.04 0.04 0.08 0.06 0.03 0.02 0.02 0.03 0.03 0.03 0.03
0.10 0.11 0.07 0.05 0.05 0.06 0.08 0.07 0.09 0.07 0.09 0.08 0.07 0.12 0.12 0.09 0.08 0.08 0.08 0.07 0.06 0.06 0.06 0.05 0.05 0.04 0.05 0.05 0.04 0.04 0.04 0.04 0.04 0.08 0.09 0.05 0.04 0.02 0.01 0.02 0.01 0.01 0.02
0.09 0.09 0.06 0.06 0.06 0.07 0.07 0.08 0.11 0.09 0.10 0.09 0.09 0.14 0.21 0.16 0.09 0.07 0.08 0.09 0.08 0.08 0.08 0.05 0.05 0.05 0.05 0.04 0.02 0.02 0.02 0.04 0.05 0.08 0.05 0.04 0.04 0.03 0.02 0.02 0.01 0.01 0.01
0.08 0.08 0.06 0.06 0.06 0.07 0.07 0.07 0.12 0.14 0.17 0.15 0.15 0.15 0.20 0.29 0.17 0.09 0.09 0.09 0.11 0.11 0.09 0.06 0.05 0.06 0.05 0.02 0.02 0.01 0.01 0.03 0.05 0.05 0.03 0.05 0.04 0.03 0.03 0.02 0.02 0.01 0.01
0.08 0.08 0.07 0.06 0.06 0.07 0.08 0.08 0.13 0.18 0.20 0.20 0.17 0.12 0.13 0.24 0.19 0.14 0.08 0.08 0.11 0.11 0.10 0.09 0.07 0.06 0.05 0.03 0.02 0.01 0.01 0.03 0.05 0.03 0.03 0.04 0.03 0.02 0.01 0.02 0.02 0.02 0.01
0.07 0.07 0.07 0.05 0.08 0.09 0.12 0.24 0.29 0.22 0.19 0.14 0.13 0.11 0.08 0.10 0.14 0.13 0.07 0.08 0.11 0.11 0.11 0.11 0.10 0.07 0.05 0.03 0.03 0.02 0.01 0.02 0.03 0.02 0.03 0.02 0.02 0.01 0.01 0.01 0.01 0.01 0.02
0.08 0.07 0.08 0.09 0.11 0.12 0.12 0.12 0.12 0.12 0.13 0.10 0.09 0.08 0.06 0.07 0.08 0.10 0.08 0.07 0.10 0.12 0.12 0.12 0.12 0.09 0.06 0.04 0.03 0.02 0.01 0.02 0.02 0.02 0.02 0.02 0.01 0.01 0.01 0.01 0.01 0.01 0.03
0.09 0.07 0.07 0.09 0.12 0.12 0.11 0.09 0.09 0.09 0.11 0.13 0.13 0.08 0.06 0.07 0.09 0.09 0.08 0.07 0.09 0.14 0.14 0.15 0.15 0.13 0.08 0.04 0.03 0.02 0.02 0.02 0.02 0.02 0.01 0.01 0.01 0.01 0.01 0.01 0.02 0.02 0.03
0.09 0.06 0.08 0.09 0.10 0.11 0.10 0.08 0.08 0.09 0.08 0.12 0.16 0.14 0.12 0.12 0.12 0.12 0.08 0.09 0.11 0.14 0.14 0.13 0.14 0.13 0.08 0.05 0.03 0.02 0.02 0.01 0.01 0.02 0.01 0.01 0.01 0.01 0.01 0.02 0.02 0.02 0.03
0.08 0.08 0.10 0.12 0.13 0.16 0.14 0.14 0.14 0.14 0.14 0.15 0.16 0.15 0.18 0.20 0.19 0.15 0.10 0.10 0.11 0.14 0.16 0.13 0.14 0.15 0.10 0.07 0.04 0.03 0.02 0.03 0.02 0.02 0.02 0.02 0.02 0.02 0.02 0.03 0.03 0.02 0.02
0.06 0.07 0.09 0.14 0.21 0.19 0.14 0.13 0.14 0.16 0.19 0.17 0.15 0.15 0.17 0.20 0.23 0.22 0.20 0.18 0.16 0.17 0.18 0.15 0.14 0.19 0.14 0.10 0.06 0.05 0.03 0.03 0.02 0.02 0.03 0.02 0.02 0.02 0.03 0.03 0.02 0.02 0.02
0.06 0.07 0.09 0.14 0.18 0.17 0.13 0.11 0.11 0.12 0.16 0.17 0.17 0.14 0.12 0.15 0.22 0.24 0.23 0.21 0.19 0.21 0.22 0.18 0.15 0.20 0.18 0.14 0.10 0.06 0.03 0.03 0.02 0.02 0.03 0.02 0.02 0.02 0.02 0.02 0.02 0.02 0.02
0.07 0.07 0.10 0.13 0.13 0.13 0.12 0.10 0.10 0.12 0.14 0.15 0.17 0.14 0.12 0.12 0.15 0.17 0.19 0.22 0.19 0.17 0.18 0.17 0.15 0.18 0.18 0.15 0.12 0.09 0.05 0.05 0.02 0.03 0.05 0.03 0.03 0.02 0.02 0.02 0.02 0.03 0.03
0.07 0.07 0.07 0.08 0.09 0.09 0.07 0.08 0.08 0.08 0.13 0.14 0.12 0.10 0.09 0.10 0.11 0.12 0.14 0.17 0.17 0.14 0.14 0.11 0.10 0.14 0.15 0.14 0.13 0.11 0.07 0.07 0.05 0.06 0.07 0.06 0.04 0.03 0.02 0.03 0.03 0.03 0.03
0.03 0.04 0.05 0.05 0.06 0.06 0.04 0.04 0.06 0.05 0.07 0.08 0.09 0.08 0.07 0.08 0.10 0.11 0.13 0.13 0.12 0.09 0.09 0.09 0.07 0.09 0.12 0.10 0.10 0.09 0.07 0.08 0.08 0.08 0.07 0.06 0.05 0.04 0.03 0.02 0.02 0.02 0.03
0.01 0.02 0.02 0.03 0.05 0.06 0.06 0.07 0.07 0.06 0.07 0.07 0.08 0.08 0.07 0.07 0.09 0.09 0.10 0.09 0.06 0.06 0.07 0.08 0.07 0.08 0.10 0.10 0.11 0.09 0.08 0.08 0.08 0.08 0.06 0.05 0.06 0.05 0.04 0.03 0.02 0.02 0.03
0.01 0.02 0.02 0.02 0.04 0.04 0.07 0.10 0.10 0.09 0.09 0.08 0.08 0.08 0.10 0.09 0.09 0.08 0.09 0.09 0.07 0.06 0.06 0.05 0.05 0.06 0.08 0.09 0.11 0.10 0.09 0.07 0.07 0.06 0.05 0.05 0.06 0.05 0.04 0.04 0.03 0.03 0.03
0.01 0.02 0.02 0.02 0.02 0.04 0.05 0.09 0.09 0.10 0.11 0.10 0.08 0.09 0.10 0.12 0.11 0.10 0.09 0.08 0.08 0.07 0.08 0.08 0.07 0.08 0.07 0.07 0.08 0.10 0.08 0.05 0.05 0.05 0.04 0.04 0.04 0.03 0.05 0.06 0.03 0.04 0.03
0.00 0.01 0.01 0.02 0.02 0.03 0.05 0.05 0.06 0.08 0.10 0.11 0.09 0.09 0.11 0.13 0.13 0.12 0.08 0.07 0.08 0.07 0.07 0.08 0.09 0.09 0.08 0.07 0.08 0.09 0.08 0.06 0.07 0.06 0.04 0.04 0.04 0.04 0.05 0.05 0.02 0.03 0.03
0.00 0.00 0.01 0.02 0.02 0.03 0.04 0.04 0.05 0.08 0.09 0.10 0.11 0.14 0.16 0.16 0.14 0.10 0.09 0.06 0.06 0.07 0.07 0.09 0.10 0.10 0.08 0.08 0.09 0.11 0.10 0.11 0.09 0.06 0.06 0.06 0.05 0.06 0.05 0.04 0.03 0.05 0.04
0.00 0.01 0.01 0.02 0.02 0.03 0.04 0.05 0.07 0.08 0.08 0.11 0.14 0.16 0.15 0.12 0.11 0.12 0.12 0.10 0.10 0.08 0.09 0.10 0.11 0.12 0.11 0.09 0.10 0.12 0.12 0.15 0.14 0.09 0.07 0.07 0.07 0.08 0.06 0.05 0.05 0.06 0.05
0.01 0.01 0.01 0.02 0.03 0.03 0.04 0.05 0.07 0.07 0.07 0.08 0.10 0.10 0.09 0.07 0.08 0.12 0.15 0.16 0.14 0.12 0.13 0.10 0.10 0.10 0.10 0.10 0.10 0.10 0.10 0.14 0.17 0.15 0.11 0.07 0.08 0.09 0.08 0.05 0.03 0.04 0.05
0.00 0.01 0.02 0.04 0.04 0.04 0.04 0.05 0.08 0.08 0.07 0.07 0.09 0.10 0.08 0.08 0.08 0.11 0.14 0.15 0.15 0.13 0.13 0.11 0.12 0.09 0.09 0.08 0.07 0.08 0.10 0.12 0.11 0.12 0.11 0.11 0.10 0.07 0.05 0.04 0.03 0.03 0.03
0.02 0.02 0.02 0.04 0.07 0.07 0.07 0.07 0.07 0.09 0.08 0.08 0.10 0.12 0.09 0.08 0.08 0.09 0.10 0.12 0.11 0.10 0.10 0.08 0.09 0.07 0.08 0.08 0.08 0.07 0.08 0.09 0.10 0.10 0.09 0.10 0.09 0.06 0.03 0.03 0.02 0.02 0.03
MSLP
1006.65 1006.35 1006.28 1006.50 1006.93 1007.49 1008.09 1008.61 1009.02 1009.31 1009.52 1009.70 1009.94 1010.26 1010.69 1011.21 1011.75 1012.28 1012.74 1013.12 1013.42 1013.67 1013.90 1014.13 1014.40 1014.67 1014.94 1015.18 1015.36 1015.47 1015.52 1015.55 1015.57 1015.63 1015.75 1015.91 1016.11 1016.34 1016.55 1016.75 1016.93 1017.09 1017.24
1006.54 1006.29 1006.30 1006.59 1007.08 1007.69 1008.29 1008.82 1009.22 1009.51 1009.74 1009.96 1010.26 1010.66 1011.17 1011.74 1012.32 1012.85 1013.29 1013.63 1013.88 1014.07 1014.26 1014.47 1014.71 1014.97 1015.23 1015.45 1015.61 1015.70 1015.74 1015.75 1015.78 1015.85 1015.99 1016.19 1016.43 1016.68 1016.92 1017.12 1017.28 1017.41 1017.53
1006.27 1006.11 1006.22 1006.60 1007.18 1007.84 1008.48 1009.02 1009.43 1009.73 1009.97 1010.23 1010.57 1011.02 1011.57 1012.18 1012.78 1013.31 1013.73 1014.03 1014.25 1014.41 1014.57 1014.77 1015.00 1015.25 1015.50 1015.70 1015.83 1015.89 1015.90 1015.90 1015.93 1016.02 1016.20 1016.44 1016.72 1017.01 1017.26 1017.47 1017.62 1017.73 1017.82
1005.87 1005.81 1006.03 1006.52 1007.20 1007.93 1008.63 1009.20 1009.63 1009.94 1010.20 1010.48 1010.85 1011.33 1011.90 1012.52 1013.12 1013.64 1014.04 1014.33 1014.53 1014.69 1014.86 1015.06 1015.29 1015.54 1015.77 1015.94 1016.03 1016.06 1016.04 1016.02 1016.04 1016.16 1016.37 1016.65 1016.98 1017.30 1017.58 1017.79 1017.94 1018.04 1018.13
1005.38 1005.41 1005.75 1006.36 1007.14 1007.96 1008.72 1009.34 1009.81 1010.15 1010.43 1010.73 1011.11 1011.60 1012.17 1012.78 1013.37 1013.87 1014.26 1014.55 1014.76 1014.94 1015.13 1015.35 1015.60 1015.86 1016.07 1016.20 1016.25 1016.23 1016.17 1016.12 1016.14 1016.27 1016.50 1016.82 1017.18 1017.54 1017.84 1018.08 1018.23 1018.34 1018.42
1004.86 1004.99 1005.43 1006.15 1007.02 1007.93 1008.76 1009.44 1009.96 1010.33 1010.64 1010.97 1011.36 1011.85 1012.41 1013.00 1013.56 1014.05 1014.43 1014.72 1014.96 1015.18 1015.41 1015.67 1015.94 1016.20 1016.39 1016.49 1016.49 1016.41 1016.30 1016.22 1016.22 1016.35 1016.60 1016.94 1017.33 1017.71 1018.04 1018.29 1018.46 1018.57 1018.67
1004.45 1004.64 1005.16 1005.95 1006.91 1007.89 1008.78 1009.52 1010.09 1010.51 1010.86 1011.22 1011.63 1012.11 1012.65 1013.22 1013.75 1014.21 1014.59 1014.89 1015.15 1015.41 1015.68 1015.98 1016.28 1016.54 1016.71 1016.77 1016.72 1016.59 1016.43 1016.31 1016.29 1016.40 1016.65 1017.00 1017.41 1017.81 1018.15 1018.42 1018.60 1018.74 1018.85
1004.25 1004.47 1005.03 1005.87 1006.87 1007.89 1008.83 1009.62 1010.24 1010.71 1011.12 1011.51 1011.93 1012.42 1012.95 1013.48 1013.98 1014.42 1014.78 1015.08 1015.35 1015.64 1015.94 1016.27 1016.59 1016.84 1017.00 1017.03 1016.93 1016.75 1016.54 1016.38 1016.33 1016.42 1016.66 1017.01 1017.43 1017.83 1018.18 1018.46 1018.65 1018.80 1018.93
1004.37 1004.61 1005.17 1006.01 1007.01 1008.04 1008.99 1009.80 1010.46 1010.99 1011.44 1011.87 1012.33 1012.82 1013.33 1013.83 1014.29 1014.69 1015.02 1015.30 1015.57 1015.85 1016.17 1016.50 1016.82 1017.07 1017.21 1017.22 1017.09 1016.87 1016.63 1016.43 1016.35 1016.42 1016.65 1016.99 1017.39 1017.79 1018.14 1018.42 1018.62 1018.77 1018.91
1004.89 1005.11 1005.65 1006.46 1007.41 1008.39 1009.32 1010.13 1010.80 1011.37 1011.86 1012.34 1012.82 1013.32 1013.82 1014.29 1014.71 1015.05 1015.32 1015.56 1015.79 1016.05 1016.35 1016.67 1016.98 1017.22 1017.34 1017.33 1017.19 1016.96 1016.70 1016.48 1016.38 1016.43 1016.63 1016.95 1017.34 1017.72 1018.07 1018.33 1018.53 1018.68 1018.81
1005.79 1006.00 1006.50 1007.23 1008.10 1009.01 1009.87 1010.64 1011.31 1011.89 1012.42 1012.92 1013.43 1013.94 1014.43 1014.86 1015.22 1015.49 1015.70 1015.86 1016.03 1016.24 1016.49 1016.78 1017.06 1017.28 1017.41 1017.39 1017.26 1017.02 1016.76 1016.54 1016.43 1016.46 1016.63 1016.93 1017.29 1017.65 1017.98 1018.23 1018.42 1018.55 1018.67
1007.02 1007.22 1007.66 1008.31 1009.07 1009.87 1010.65 1011.35 1011.99 1012.56 1013.10 1013.62 1014.15 1014.65 1015.12 1015.52 1015.82 1016.02 1016.14 1016.22 1016.31 1016.44 1016.63 1016.86 1017.11 1017.31 1017.43 1017.43 1017.31 1017.10 1016.85 1016.64 1016.51 1016.52 1016.67 1016.93 1017.25 1017.59 1017.89 1018.13 1018.30 1018.41 1018.51
1008.44 1008.64 1009.04 1009.59 1010.24 1010.93 1011.60 1012.22 1012.80 1013.34 1013.87 1014.40 1014.92 1015.42 1015.87 1016.22 1016.46 1016.60 1016.64 1016.63 1016.63 1016.67 1016.78 1016.96 1017.16 1017.35 1017.47 1017.48 1017.39 1017.21 1016.98 1016.77 1016.64 1016.62 1016.73 1016.94 1017.23 1017.53 1017.81 1018.03 1018.18 1018.28 1018.34
1009.89 1010.11 1010.47 1010.95 1011.49 1012.06 1012.63 1013.17 1013.68 1014.18 1014.69 1015.20 1015.71 1016.19 1016.60 1016.92 1017.12 1017.19 1017.16 1017.07 1016.99 1016.95 1016.99 1017.10 1017.26 1017.42 1017.54 1017.57 1017.50 1017.35 1017.14 1016.93 1016.78 1016.73 1016.79 1016.95 1017.19 1017.45 1017.70 1017.90 1018.04 1018.12 1018.17
1011.22 1011.46 1011.80 1012.21 1012.67 1013.15 1013.63 1014.09 1014.54 1014.99 1015.46 1015.94 1016.43 1016.88 1017.26 1017.55 1017.70 1017.73 1017.65 1017.51 1017.37 1017.26 1017.23 1017.29 1017.40 1017.54 1017.65 1017.69 1017.64 1017.50 1017.30 1017.08 1016.90 1016.80 1016.79 1016.89 1017.07 1017.29 1017.51 1017.70 1017.83 1017.90 1017.94
1012.28 1012.55 1012.87 1013.24 1013.64 1014.06 1014.47 1014.87 1015.28 1015.69 1016.11 1016.55 1017.00 1017.41 1017.76 1018.02 1018.15 1018.16 1018.05 1017.89 1017.71 1017.57 1017.50 1017.51 1017.58 1017.69 1017.78 1017.82 1017.77 1017.63 1017.42 1017.18 1016.95 1016.78 1016.71 1016.73 1016.84 1017.01 1017.20 1017.37 1017.49 1017.57 1017.60
1013.02 1013.30 1013.61 1013.95 1014.32 1014.70 1015.08 1015.45 1015.82 1016.19 1016.57 1016.96 1017.36 1017.73 1018.04 1018.27 1018.38 1018.39 1018.29 1018.13 1017.96 1017.81 1017.71 1017.69 1017.74 1017.82 1017.89 1017.91 1017.85 1017.69 1017.46 1017.18 1016.90 1016.66 1016.51 1016.45 1016.48 1016.59 1016.73 1016.88 1017.01 1017.08 1017.12
1013.43 1013.71 1014.00 1014.33 1014.68 1015.04 1015.41 1015.77 1016.12 1016.46 1016.80 1017.14 1017.47 1017.78 1018.05 1018.25 1018.37 1018.38 1018.32 1018.19 1018.04 1017.91 1017.82 1017.79 1017.81 1017.87 1017.91 1017.91 1017.83 1017.66 1017.40 1017.08 1016.74 1016.44 1016.20 1016.06 1016.01 1016.05 1016.14 1016.26 1016.37 1016.45 1016.50
1013.57 1013.83 1014.10 1014.41 1014.75 1015.12 1015.49 1015.86 1016.20 1016.52 1016.81 1017.09 1017.35 1017.59 1017.80 1017.97 1018.08 1018.12 1018.09 1018.02 1017.92 1017.83 1017.77 1017.75 1017.76 1017.80 1017.82 1017.80 1017.70 1017.51 1017.24 1016.89 1016.52 1016.15 1015.85 1015.62 1015.49 1015.45 1015.49 1015.56 1015.64 1015.71 1015.76
1013.52 1013.75 1013.99 1014.28 1014.62 1014.99 1015.38 1015.75 1016.09 1016.38 1016.63 1016.84 1017.02 1017.19 1017.33 1017.46 1017.56 1017.62 1017.64 1017.63 1017.60 1017.56 1017.54 1017.54 1017.56 1017.59 1017.61 1017.58 1017.47 1017.29 1017.01 1016.66 1016.26 1015.87 1015.51 1015.21 1015.01 1014.89 1014.85 1014.86 1014.90 1014.94 1014.97
1013.37 1013.56 1013.78 1014.04 1014.37 1014.74 1015.14 1015.52 1015.85 1016.12 1016.32 1016.46 1016.56 1016.64 1016.72 1016.79 1016.87 1016.95 1017.01 1017.05 1017.09 1017.11 1017.14 1017.17 1017.21 1017.25 1017.28 1017.26 1017.17 1017.01 1016.76 1016.43 1016.05 1015.65 1015.26 1014.92 1014.65 1014.45 1014.33 1014.26 1014.24 1014.23 1014.24
1013.16 1013.34 1013.52 1013.76 1014.07 1014.44 1014.84 1015.22 1015.55 1015.80 1015.95 1016.03 1016.05 1016.05 1016.05 1016.07 1016.12 1016.19 1016.28 1016.37 1016.46 1016.54 1016.62 1016.69 1016.76 1016.82 1016.87 1016.87 1016.83 1016.72 1016.53 1016.26 1015.92 1015.55 1015.16 1014.79 1014.47 1014.20 1013.99 1013.84 1013.73 1013.67 1013.63
1012.92 1013.09 1013.27 1013.49 1013.79 1014.15 1014.54 1014.92 1015.24 1015.47 1015.60 1015.62 1015.58 1015.51 1015.44 1015.40 1015.41 1015.46 1015.56 1015.68 1015.80 1015.92 1016.04 1016.14 1016.24 1016.33 1016.40 1016.46 1016.47 1016.43 1016.32 1016.14 1015.88 1015.57 1015.21 1014.84 1014.48 1014.15 1013.86 1013.62 1013.43 1013.29 1013.20
1012.63 1012.83 1013.01 1013.22 1013.51 1013.86 1014.25 1014.63 1014.96 1015.19 1015.30 1015.29 1015.21 1015.08 1014.95 1014.86 1014.82 1014.85 1014.93 1015.05 1015.19 1015.33 1015.46 1015.58 1015.70 1015.81 1015.92 1016.03 1016.11 1016.15 1016.14 1016.06 1015.90 1015.66 1015.36 1015.01 1014.64 1014.27 1013.91 1013.59 1013.32 1013.11 1012.96
1012.26 1012.51 1012.71 1012.93 1013.21 1013.56 1013.96 1014.35 1014.70 1014.94 1015.06 1015.06 1014.96 1014.80 1014.64 1014.50 1014.41 1014.40 1014.45 1014.55 1014.67 1014.80 1014.93 1015.05 1015.17 1015.30 1015.44 1015.58 1015.73 1015.85 1015.94 1015.96 1015.90 1015.76 1015.53 1015.22 1014.86 1014.46 1014.07 1013.69 1013.36 1013.08 1012.88
1011.80 1012.10 1012.33 1012.57 1012.86 1013.22 1013.63 1014.05 1014.43 1014.71 1014.87 1014.89 1014.81 1014.65 1014.47 1014.30 1014.18 1014.13 1014.13 1014.18 1014.27 1014.37 1014.47 1014.57 1014.68 1014.80 1014.95 1015.13 1015.32 1015.51 1015.68 1015.79 1015.83 1015.78 1015.62 1015.37 1015.04 1014.66 1014.24 1013.84 1013.46 1013.15 1012.91
Thickness
5816 5815 5812 5812 5811 5808 5807 5805 5804 5803 5802 5801 5799 5797 5796 5794 5792 5790 5788 5786 5784 5782 5781 5779 5778 5777 5776 5775 5774 5773 5772 5771 5770 5769 5768 5766 5765 5764 5763 5762 5762 5760 5758
5820 5815 5811 5810 5808 5806 5805 5804 5803 5802 5800 5799 5797 5795 5794 5792 5790 5788 5786 5784 5783 5781 5779 5778 5777 5776 5775 5774 5773 5772 5771 5770 5769 5768 5767 5765 5764 5763 5762 5762 5761 5759 5757
5820 5815 5811 5808 5806 5805 5803 5802 5801 5800 5799 5797 5795 5794 5792 5790 5788 5786 5784 5783 5781 5780 5778 5777 5776 5775 5773 5773 5772 5772 5771 5770 5769 5768 5767 5765 5763 5762 5761 5760 5759 5757 5756
5821 5816 5812 5808 5806 5804 5802 5801 5799 5798 5797 5795 5793 5792 5791 5789 5787 5785 5783 5781 5780 5778 5777 5776 5775 5774 5773 5772 5771 5771 5770 5769 5768 5768 5768 5767 5764 5761 5760 5759 5757 5756 5754
5821 5816 5811 5807 5805 5803 5801 5799 5798 5796 5795 5793 5792 5791 5789 5788 5786 5784 5782 5780 5778 5777 5776 5775 5774 5773 5772 5771 5770 5770 5770 5770 5769 5769 5769 5767 5764 5761 5760 5758 5757 5755 5754
5821 5816 5810 5807 5804 5801 5800 5798 5796 5794 5793 5792 5790 5789 5788 5786 5784 5783 5781 5779 5778 5776 5775 5774 5773 5772 5771 5770 5770 5770 5770 5770 5770 5771 5770 5768 5764 5761 5759 5758 5756 5755 5753
5820 5816 5809 5806 5803 5800 5798 5796 5795 5793 5791 5791 5789 5788 5787 5786 5783 5781 5780 5779 5777 5775 5774 5773 5772 5771 5770 5769 5769 5769 5770 5770 5771 5772 5771 5768 5764 5762 5760 5758 5756 5755 5753
5821 5815 5809 5805 5802 5799 5797 5795 5794 5792 5790 5789 5788 5786 5785 5784 5783 5780 5779 5778 5777 5775 5774 5772 5771 5770 5769 5769 5769 5769 5770 5770 5772 5773 5771 5769 5765 5763 5760 5758 5757 5755 5753
5821 5815 5809 5805 5801 5798 5796 5794 5793 5791 5789 5788 5787 5785 5784 5783 5782 5780 5779 5777 5776 5775 5774 5773 5771 5770 5770 5769 5769 5770 5770 5771 5772 5773 5772 5769 5766 5763 5761 5759 5757 5755 5754
5819 5815 5810 5807 5803 5799 5796 5793 5792 5790 5789 5787 5786 5785 5784 5783 5781 5780 5779 5777 5776 5775 5774 5773 5771 5771 5770 5770 5770 5770 5771 5771 5772 5774 5772 5769 5766 5764 5761 5760 5758 5756 5755
5815 5814 5812 5808 5805 5802 5798 5794 5792 5790 5788 5786 5785 5785 5783 5783 5782 5780 5779 5777 5776 5775 5774 5773 5772 5771 5770 5771 5771 5771 5771 5773 5775 5774 5772 5769 5767 5764 5762 5760 5759 5757 5755
5810 5811 5811 5809 5806 5803 5801 5796 5792 5791 5788 5787 5786 5785 5784 5784 5783 5781 5779 5778 5776 5775 5774 5773 5772 5771 5771 5772 5772 5772 5773 5774 5775 5774 5772 5770 5767 5765 5763 5761 5759 5758 5756
5811 5810 5810 5808 5806 5804 5800 5797 5794 5792 5789 5788 5787 5786 5785 5784 5783 5781 5779 5777 5776 5775 5774 5773 5772 5773 5774 5774 5775 5774 5774 5775 5775 5775 5772 5770 5768 5766 5764 5762 5760 5759 5757
5811 5809 5809 5807 5805 5803 5801 5798 5795 5793 5791 5789 5788 5786 5785 5784 5783 5782 5780 5778 5777 5776 5775 5774 5774 5774 5775 5776 5776 5776 5776 5776 5775 5774 5772 5770 5769 5767 5765 5763 5761 5760 5758
5810 5808 5807 5806 5803 5801 5800 5798 5797 5794 5792 5790 5788 5786 5785 5784 5783 5782 5780 5779 5779 5777 5776 5775 5775 5775 5775 5775 5776 5777 5776 5776 5775 5774 5773 5771 5769 5768 5766 5764 5762 5761 5759
5811 5809 5808 5806 5803 5801 5799 5798 5797 5796 5794 5791 5789 5787 5785 5784 5783 5782 5780 5779 5778 5778 5777 5776 5776 5776 5775 5775 5775 5776 5776 5776 5775 5774 5773 5772 5770 5768 5767 5765 5763 5762 5760
5812 5810 5808 5806 5804 5801 5799 5798 5797 5796 5794 5792 5790 5789 5787 5785 5783 5782 5781 5779 5779 5778 5777 5776 5776 5775 5775 5775 5775 5776 5776 5776 5775 5775 5774 5772 5771 5769 5768 5766 5765 5763 5761
5814 5810 5808 5808 5804 5801 5800 5799 5798 5796 5795 5793 5792 5790 5787 5786 5784 5782 5781 5780 5780 5779 5778 5776 5775 5774 5773 5774 5774 5775 5776 5775 5776 5775 5775 5774 5773 5771 5769 5767 5765 5764 5762
5815 5811 5808 5806 5804 5801 5800 5799 5798 5796 5795 5794 5792 5790 5787 5786 5785 5783 5782 5781 5780 5779 5777 5776 5774 5773 5771 5772 5772 5773 5774 5775 5776 5776 5776 5775 5774 5773 5770 5768 5766 5765 5763
5817 5812 5808 5806 5803 5801 5799 5797 5796 5795 5794 5794 5792 5791 5789 5787 5785 5784 5783 5781 5780 5778 5776 5775 5772 5772 5771 5771 5772 5772 5773 5775 5776 5775 5776 5776 5775 5774 5772 5770 5767 5765 5763
5816 5811 5808 5804 5802 5800 5797 5794 5792 5791 5792 5792 5792 5791 5789 5787 5785 5784 5783 5782 5780 5778 5776 5775 5772 5769 5769 5770 5767 5765 5769 5773 5774 5775 5776 5775 5775 5774 5773 5771 5769 5767 5765
5816 5811 5808 5804 5802 5800 5798 5796 5794 5793 5793 5793 5793 5791 5789 5787 5786 5785 5783 5781 5780 5778 5776 5774 5771 5768 5767 5769 5764 5758 5756 5760 5768 5775 5774 5774 5774 5774 5773 5772 5770 5768 5767
5816 5812 5810 5806 5803 5801 5800 5798 5795 5793 5791 5790 5789 5789 5789 5788 5786 5784 5783 5781 5779 5777 5775 5773 5771 5768 5764 5766 5767 5760 5752 5749 5757 5766 5771 5772 5773 5772 5773 5773 5771 5770 5768
5819 5815 5811 5806 5803 5802 5800 5796 5792 5788 5785 5787 5788 5789 5789 5788 5786 5784 5782 5781 5779 5777 5775 5773 5773 5770 5767 5763 5765 5766 5764 5761 5753 5753 5762 5768 5770 5770 5771 5772 5771 5770 5768
5822 5817 5811 5806 5803 5802 5800 5796 5792 5789 5789 5789 5789 5788 5787 5787 5786 5784 5783 5780 5778 5777 5775 5774 5772 5770 5768 5765 5764 5763 5762 5762 5760 5753 5751 5758 5763 5767 5769 5770 5770 5769 5767
5822 5817 5812 5805 5801 5800 5798 5795 5792 5789 5788 5786 5785 5784 5784 5785 5785 5784 5783 5780 5778 5776 5775 5773 5772 5770 5768 5766 5765 5763 5760 5757 5756 5755 5752 5753 5755 5762 5766 5768 5768 5768 5767